sat.trackr.live / text

‹ back to catalog

STARLINK-34207

NORAD 64333 · 2025-124S

PAYLOAD ACTIVE UNKNOWN

§ Identity

Operator
Country
US
Launch date
2025-06-10
Launch site
AFETR
Launch vehicle
Mass (kg)
RCS (m²)

Purposes: comms

External: N2YO · Heavens-Above · Gunter

§ Orbital elements

Epoch: 2026-09-20T21:34:02.434656Z

Period
94.27 min
Inclination
42.9984°
Eccentricity
0.0000780
Mean motion
15.27589966 rev/d
Perigee alt
482.5 km
Apogee alt
483.6 km
Semi-major
6,861.2 km
B*
4.2837e-4
RAAN
99.3963°
Arg perigee
289.6658°
Mean anomaly
70.4110°
Rev number
7,163

§ Raw data

STARLINK-342071 64333U 25124S   26263.89863929  .00011548  00000+0  42837-3 0  99912 64333  42.9984  99.3963 0000780 289.6658  70.4110 15.27589966 71633

JSON: /api/v1/satellites/64333 · /tle

For live sub-satellite position, see the globe view (requires WebGL).

§ Visibility from observer

Set your observer location to see the next 7 days of passes ≥ 10°. The values pass through the URL so the page stays shareable.

No JS? Fill the form by hand. The geolocation button needs JavaScript.